sat.trackr.live / text

‹ back to catalog

STARLINK-31458

NORAD 59501 · 2024-071T

PAYLOAD ACTIVE UNKNOWN

§ Identity

Operator
Country
US
Launch date
2024-04-13
Launch site
AFETR
Launch vehicle
Mass (kg)
RCS (m²)

Purposes: comms

External: N2YO · Heavens-Above · Gunter

§ Orbital elements

Epoch: 2026-05-25T00:53:40.994592Z

Period
94.27 min
Inclination
43.0002°
Eccentricity
0.0001050
Mean motion
15.27577514 rev/d
Perigee alt
482.3 km
Apogee alt
483.8 km
Semi-major
6,861.2 km
B*
1.3091e-5
RAAN
268.4277°
Arg perigee
271.3141°
Mean anomaly
88.7590°
Rev number
11,988

§ Raw data

STARLINK-314581 59501U 24071T   26145.03728003  .00000098  00000+0  13091-4 0  99992 59501  43.0002 268.4277 0001050 271.3141  88.7590 15.27577514119880

JSON: /api/v1/satellites/59501 · /tle

For live sub-satellite position, see the globe view (requires WebGL).

§ Visibility from observer

Set your observer location to see the next 7 days of passes ≥ 10°. The values pass through the URL so the page stays shareable.

No JS? Fill the form by hand. The geolocation button needs JavaScript.